Regional Weather Roundup
Issued by NWS

Home | Current Version | Previous Version | Graphics & Text | Print | Product List | Glossary On
Versions: 1 2 3 4 5 6 7 8 9 10 11 12 13 14 15 16 17 18 19 20 21 22 23 24 25 26 27 28 29 30 31 32 33 34 35 36 37 38 39 40 41 42 43 44 45 46 47 48 49 50
000
ASUS45 KCYS 200110
RWRWY

WYOMING REGIONAL WEATHER ROUNDUP
NATIONAL WEATHER SERVICE CHEYENNE WY
600 PM MST FRI DEC 19 2014

NOTE:  "FAIR" INDICATES FEW OR NO CLOUDS BELOW 12,000 FEET
WITH NO SIGNIFICANT WEATHER AND/OR OBSTRUCTIONS TO VISIBILITY.

WYZ001-200200-
YELLOWSTONE NATIONAL PARK

CITY           SKY/WX    TMP DP  RH WIND       PRES   REMARKS
LK YELLOWSTONE   N/A     26  21  81 CALM      30.02S
W YELLOWSTONE  NOT AVBL

$$
WYZ002>013-054>058-071-098>099-200200-
NORTHERN WYOMING

CITY           SKY/WX    TMP DP  RH WIND       PRES   REMARKS
JACKSON        CLOUDY    30  28  93 SW5       30.04S WCI  25
CODY           MOCLDY    37  27  65 N8G23     29.90S WCI  31
GREYBULL       FAIR      19  14  81 CALM      29.97R
WORLAND        FAIR      11   7  84 CALM      29.96R
SHERIDAN       FAIR      31  22  69 CALM      29.86F
BUFFALO        FAIR      37  12  35 S7        29.89F WCI  32
GILLETTE       FAIR      31  21  66 S6        29.90F WCI  25
HULETT           N/A    N/A N/A N/A MISG        N/A
NEWCASTLE      FAIR      30  19  64 E7        29.95S WCI  23

$$
WYZ014>020-022>026-101>103-200200-
CENTRAL WYOMING

CITY           SKY/WX    TMP DP  RH WIND       PRES   REMARKS
BIG PINEY      CLOUDY    29  20  69 E6        30.06F WCI  23
PINEDALE       CLOUDY    28  23  80 CALM      30.07S
DUBOIS         NOT AVBL
LANDER         FAIR      13   8  81 CALM      29.96F
RIVERTON       FAIR      11   8  88 CALM      29.98S
CASPER         FAIR      31  22  69 SW24      29.96F WCI  17
DOUGLAS        FAIR      31  21  66 CALM      29.96S

$$
WYZ021-027>030-104>119-200200-
SOUTHERN WYOMING

CITY           SKY/WX    TMP DP  RH WIND       PRES   REMARKS
EVANSTON       CLOUDY    33  22  63 SW15      30.07R WCI  23
KEMMERER       CLOUDY    32  23  69 SW5       30.08R WCI  27
FORT BRIDGER   MOCLDY    33  23  67 SW6       30.10S WCI  27
ROCK SPRINGS   CLOUDY    30  21  69 SW8       30.09R WCI  22
DIXON          FAIR      18  15  88 E6        30.18S WCI  10
RAWLINS        FAIR      25  17  72 SW13      30.07R WCI  14
SARATOGA       CLOUDY    28  19  69 SE7       30.08F WCI  21
LARAMIE        FAIR      23  13  65 SW13      30.02R WCI  11
CHEYENNE       FAIR      32  13  45 W14       30.00S WCI  22
TORRINGTON     FAIR     N/A N/A N/A W7        29.98R
PINE BLUFFS    FAIR      32  18  55 W13       30.01S WCI  22

$$


USA.gov is the U.S. government's official web portal to all federal, state and local government web resources and services.